F5MAP-5 Weather Reports


Display with metric or nautical units.
time (UTC)temp
F
wind
direction
speed
MPH
gust
MPH
rain 1hr
in
rain 24hr
in
rain mn
in
humidity
%
barometer
mb
20260507193215 55 11 1.0 4.0 0.00 0.07 0.06 82 1015.7
20260507192214 55 11 1.0 3.0 0.00 0.07 0.06 82 1015.6
20260507191214 56 5 2.0 4.0 0.00 0.07 0.06 81 1015.5
20260507190214 56 15 0.0 2.0 0.00 0.07 0.06 81 1015.5
20260507185214 56 45 2.0 5.0 0.00 0.09 0.06 80 1015.5
20260507184214 57 19 3.0 5.0 0.00 0.09 0.06 80 1015.4
20260507183214 57 42 2.0 5.0 0.00 0.09 0.06 79 1015.3
20260507182214 58 26 1.0 4.0 0.00 0.09 0.06 78 1015.3
20260507181214 58 62 3.0 5.0 0.00 0.09 0.06 77 1015.2
20260507180214 58 36 2.0 7.0 0.00 0.09 0.06 76 1015.1
20260507175214 58 350 2.0 9.0 0.00 0.11 0.06 76 1015.1
20260507174214 59 36 4.0 8.0 0.00 0.11 0.06 74 1015.0
20260507173214 59 32 4.0 9.0 0.00 0.11 0.06 73 1015.1
20260507172214 59 335 4.0 8.0 0.00 0.11 0.06 72 1015.2
20260507171215 59 81 4.0 11.0 0.00 0.11 0.06 72 1015.1
20260507170214 59 33 5.0 10.0 0.00 0.11 0.06 72 1014.9
20260507165213 60 340 6.0 11.0 0.00 0.14 0.06 72 1014.8
20260507164214 60 36 4.0 12.0 0.00 0.14 0.06 72 1014.9
20260507163213 60 32 3.0 10.0 0.00 0.14 0.06 73 1015.0
20260507162213 60 27 3.0 11.0 0.00 0.14 0.06 71 1015.0
20260507161213 60 59 4.0 9.0 0.00 0.14 0.06 70 1015.0
20260507160214 60 85 3.0 8.0 0.00 0.14 0.06 70 1015.0
20260507155213 60 77 4.0 10.0 0.00 0.17 0.06 69 1015.0
20260507154214 61 79 6.0 10.0 0.00 0.17 0.06 68 1015.0
20260507153431 61 355 3.0 11.0 0.00 0.17 0.06 67 1014.9
20260507153213 61 355 3.0 11.0 0.00 0.17 0.06 67 1014.9
20260507152214 61 44 6.0 11.0 0.00 0.17 0.06 67 1015.0
20260507151213 61 74 4.0 9.0 0.00 0.17 0.06 67 1014.9
20260507150213 61 82 5.0 9.0 0.00 0.17 0.06 68 1015.0
20260507145215 61 60 5.0 10.0 0.00 0.18 0.06 69 1014.9
20260507144215 61 67 3.0 9.0 0.00 0.18 0.06 69 1014.9
20260507143214 61 26 5.0 9.0 0.00 0.18 0.06 69 1015.0
20260507142214 61 77 3.0 7.0 0.00 0.18 0.06 72 1015.1
20260507141214 60 63 3.0 8.0 0.00 0.18 0.06 71 1015.1
20260507140214 60 17 3.0 7.0 0.00 0.18 0.06 72 1015.1
20260507135214 61 98 3.0 9.0 0.00 0.18 0.06 73 1015.2
20260507134214 60 32 3.0 9.0 0.00 0.18 0.06 73 1015.3
20260507133214 60 9 4.0 9.0 0.00 0.18 0.06 74 1015.4
20260507132213 60 21 1.0 7.0 0.00 0.18 0.06 74 1015.4
20260507131214 60 28 2.0 5.0 0.00 0.18 0.06 76 1015.3
20260507130214 60 19 4.0 8.0 0.00 0.18 0.06 77 1015.3
20260507125213 60 68 4.0 10.0 0.00 0.18 0.06 78 1015.4
20260507124213 59 51 4.0 10.0 0.00 0.18 0.06 79 1015.4
20260507123214 59 34 3.0 9.0 0.00 0.18 0.06 79 1015.4
20260507122213 58 22 4.0 11.0 0.00 0.18 0.06 81 1015.4
20260507121214 57 46 4.0 9.0 0.00 0.18 0.06 82 1015.3
20260507120215 57 350 5.0 9.0 0.00 0.18 0.06 84 1015.3
20260507115213 57 5 3.0 7.0 0.00 0.18 0.06 85 1015.3
20260507114213 56 14 4.0 10.0 0.00 0.18 0.06 85 1015.3
20260507113212 57 36 5.0 9.0 0.00 0.18 0.06 84 1015.3
20260507112212 57 13 5.0 10.0 0.00 0.18 0.06 85 1015.3
20260507111212 57 40 3.0 9.0 0.00 0.18 0.06 85 1015.3
20260507110212 57 51 3.0 6.0 0.00 0.18 0.06 86 1015.3
20260507105213 57 5 0.0 3.0 0.00 0.18 0.06 86 1015.2
20260507104212 57 294 1.0 2.0 0.00 0.18 0.06 88 1015.3
20260507103213 57 260 2.0 4.0 0.00 0.18 0.06 89 1015.2
20260507102212 57 268 1.0 5.0 0.00 0.18 0.06 91 1015.3
20260507101212 56 205 2.0 7.0 0.00 0.18 0.06 92 1015.3
20260507100212 56 217 4.0 8.0 0.00 0.18 0.06 92 1015.3
20260507095213 56 215 2.0 5.0 0.00 0.18 0.06 93 1015.3
20260507094213 56 266 2.0 7.0 0.00 0.18 0.06 93 1015.3
20260507093213 55 179 3.0 6.0 0.00 0.18 0.06 94 1015.2
20260507092213 55 198 2.0 6.0 0.00 0.18 0.06 94 1015.2
20260507091213 55 199 3.0 7.0 0.00 0.18 0.06 95 1015.2
20260507090213 54 181 4.0 7.0 0.00 0.18 0.06 95 1015.1
20260507085213 54 218 3.0 7.0 0.00 0.18 0.06 95 1015.1
20260507084213 53 173 3.0 6.0 0.00 0.18 0.06 95 1014.9
20260507083212 53 171 3.0 6.0 0.00 0.18 0.06 95 1015.0
20260507082213 53 205 2.0 5.0 0.00 0.18 0.06 95 1015.0
20260507081212 53 186 3.0 4.0 0.00 0.18 0.06 95 1014.9
20260507080212 53 184 3.0 4.0 0.00 0.18 0.06 96 1014.9
20260507075212 53 171 2.0 5.0 0.00 0.18 0.06 95 1014.9
20260507074212 52 189 2.0 6.0 0.00 0.18 0.06 96 1014.8
20260507073212 52 206 2.0 5.0 0.00 0.18 0.06 95 1014.7
20260507072212 52 211 3.0 5.0 0.00 0.18 0.06 95 1014.7
20260507071212 52 201 3.0 5.0 0.00 0.18 0.06 96 1014.6
20260507070212 51 207 2.0 5.0 0.00 0.18 0.06 95 1014.5
20260507065213 51 211 2.0 4.0 0.00 0.18 0.06 95 1014.4
20260507064213 51 205 3.0 6.0 0.00 0.18 0.06 95 1014.4
20260507063213 51 248 3.0 5.0 0.00 0.18 0.06 95 1014.4
20260507062213 51 239 2.0 5.0 0.00 0.18 0.06 95 1014.4
20260507061213 50 221 1.0 5.0 0.00 0.18 0.06 95 1014.3
20260507060213 50 202 2.0 5.0 0.00 0.18 0.06 95 1014.1
20260507055213 50 227 2.0 6.0 0.00 0.18 0.06 95 1014.1
20260507054212 50 231 2.0 5.0 0.00 0.18 0.06 95 1014.0
20260507053212 50 221 3.0 6.0 0.00 0.17 0.05 95 1014.0
20260507052213 50 230 2.0 6.0 0.00 0.17 0.05 95 1013.8
20260507051212 50 245 3.0 5.0 0.00 0.17 0.05 95 1013.7
20260507050212 50 229 2.0 5.0 0.00 0.17 0.05 95 1013.5
20260507045214 50 248 0.0 4.0 0.00 0.17 0.05 95 1013.4
20260507044213 50 229 2.0 5.0 0.00 0.17 0.05 95 1013.3
20260507043212 50 216 2.0 5.0 0.00 0.17 0.05 95 1013.2
20260507042212 50 237 2.0 6.0 0.01 0.17 0.05 95 1013.1
20260507041212 50 227 3.0 5.0 0.00 0.17 0.05 95 1013.1
20260507040214 50 263 3.0 6.0 0.00 0.17 0.05 95 1013.0
20260507035212 50 269 3.0 4.0 0.00 0.17 0.05 95 1012.9
20260507034212 50 244 2.0 7.0 0.00 0.17 0.05 95 1012.8
20260507033212 50 246 5.0 8.0 0.00 0.17 0.05 95 1012.7
20260507032212 50 219 3.0 7.0 0.00 0.17 0.04 95 1012.6
20260507031212 50 228 3.0 8.0 0.00 0.17 0.04 95 1012.6
20260507030212 50 226 5.0 9.0 0.00 0.17 0.04 95 1012.5
20260507025212 50 223 5.0 11.0 0.00 0.17 0.04 95 1012.5
20260507024212 50 171 4.0 10.0 0.01 0.17 0.04 95 1012.4
20260507023212 50 239 4.0 9.0 0.01 0.17 0.04 95 1012.4
20260507022212 50 210 4.0 9.0 0.01 0.17 0.04 95 1012.3
20260507021212 50 256 4.0 9.0 0.01 0.17 0.04 95 1012.2
20260507020212 50 221 5.0 11.0 0.01 0.16 0.04 95 1012.0
20260507015212 50 243 5.0 11.0 0.01 0.16 0.04 94 1012.0
20260507014212 50 225 6.0 15.0 0.01 0.16 0.04 94 1012.0
20260507013212 50 240 5.0 13.0 0.01 0.16 0.04 94 1012.0
20260507012212 50 211 7.0 14.0 0.01 0.15 0.03 94 1012.0
20260507011211 50 215 7.0 12.0 0.01 0.15 0.03 94 1011.9
20260507010212 50 242 5.0 13.0 0.01 0.15 0.03 94 1011.8
20260507005211 50 243 7.0 12.0 0.01 0.15 0.03 94 1011.8
20260507004212 50 221 7.0 14.0 0.01 0.15 0.03 94 1011.8
20260507003211 50 267 5.0 16.0 0.01 0.15 0.02 94 1011.7
20260507002212 50 227 6.0 11.0 0.01 0.15 0.02 94 1011.7
20260507001212 50 202 7.0 14.0 0.01 0.15 0.02 94 1011.7
20260507000212 50 215 6.0 10.0 0.01 0.14 0.02 94 1011.7
20260506235211 50 225 8.0 12.0 0.01 0.14 0.02 94 1011.7
20260506234211 50 189 6.0 12.0 0.00 0.14 0.02 94 1011.7
20260506233211 50 194 7.0 13.0 0.01 0.14 0.02 94 1011.8
20260506232211 50 219 9.0 13.0 0.01 0.14 0.02 94 1011.7
20260506231211 50 205 8.0 14.0 0.01 0.14 0.02 94 1011.7
20260506230211 50 194 7.0 15.0 0.01 0.13 0.01 94 1011.6
20260506225211 50 195 7.0 13.0 0.01 0.13 0.01 94 1011.6
20260506224212 50 202 6.0 13.0 0.02 0.13 0.01 94 1011.6
20260506223211 50 196 6.0 12.0 0.01 0.13 0.01 94 1011.7
20260506222210 50 178 8.0 14.0 0.01 0.13 0.00 94 1011.6
20260506221213 50 222 6.0 14.0 0.01 0.13 0.00 94 1011.5
20260506220212 50 218 7.0 15.0 0.01 0.12 0.00 94 1011.4
20260506215212 50 247 9.0 14.0 0.01 0.12 0.12 94 1011.3
20260506214211 50 221 7.0 15.0 0.00 0.12 0.12 94 1011.2
20260506213212 51 208 7.0 15.0 0.01 0.12 0.12 93 1011.2
20260506212211 51 248 8.0 17.0 0.00 0.11 0.11 93 1011.1
20260506211211 51 231 6.0 16.0 0.01 0.11 0.11 93 1011.0
20260506210211 51 203 6.0 12.0 0.01 0.11 0.11 93 1010.9
20260506205212 51 219 6.0 12.0 0.01 0.11 0.11 93 1011.0
20260506204213 51 245 8.0 13.0 0.02 0.11 0.11 93 1010.9
20260506203212 51 207 7.0 12.0 0.02 0.11 0.11 93 1010.8
20260506202212 51 190 6.0 13.0 0.02 0.11 0.11 93 1010.8
20260506201212 51 232 8.0 13.0 0.01 0.11 0.11 93 1010.8
20260506200212 51 225 8.0 13.0 0.01 0.10 0.10 93 1010.7
20260506195212 51 192 7.0 13.0 0.01 0.10 0.10 93 1010.7
20260506194211 51 210 6.0 11.0 0.01 0.10 0.10 93 1010.6